Time,TemperatureF,DewpointF,PressureIn,WindDirection,WindDirectionDegrees,WindSpeedMPH,WindSpeedGustMPH,Humidity,HourlyPrecipIn,Conditions,Clouds,dailyrainin,SoftwareType,DateUTC
2014-09-23 00:01:00,48.0,26.6,30.22,North,0,3.0,9.0,43,0.00,CLR,CLR,0.00,WeatherDisplay:10.34,2014-09-23 04:01:00,
2014-09-23 00:06:00,47.8,26.4,30.22,NE,35,0.0,9.0,43,0.00,CLR,CLR,0.00,WeatherDisplay:10.34,2014-09-23 04:06:00,
2014-09-23 00:11:00,47.7,26.8,30.22,North,351,6.0,12.0,44,0.00,CLR,CLR,0.00,WeatherDisplay:10.34,2014-09-23 04:11:00,
2014-09-23 00:16:00,47.8,27.5,30.22,North,351,4.0,9.0,45,0.00,CLR,CLR,0.00,WeatherDisplay:10.34,2014-09-23 04:16:00,
2014-09-23 00:21:00,47.8,27.0,30.22,North,351,0.0,3.0,44,0.00,CLR,CLR,0.00,WeatherDisplay:10.34,2014-09-23 04:21:00,
2014-09-23 00:26:00,47.8,27.5,30.22,WSW,250,0.0,0.0,45,0.00,CLR,CLR,0.00,WeatherDisplay:10.34,2014-09-23 04:26:00,
2014-09-23 00:31:00,47.8,28.0,30.22,NNE,15,0.0,7.0,46,0.00,CLR,CLR,0.00,WeatherDisplay:10.34,2014-09-23 04:31:00,
2014-09-23 00:36:00,47.7,28.4,30.22,NNE,30,5.0,9.0,47,0.00,CLR,CLR,0.00,WeatherDisplay:10.34,2014-09-23 04:36:00,
2014-09-23 00:41:00,47.5,27.7,30.22,West,277,0.0,3.0,46,0.00,CLR,CLR,0.00,WeatherDisplay:10.34,2014-09-23 04:41:00,
2014-09-23 00:46:00,47.7,27.9,30.22,NW,316,5.0,14.0,46,0.00,CLR,CLR,0.00,WeatherDisplay:10.34,2014-09-23 04:46:00,
2014-09-23 00:51:00,47.5,27.7,30.22,NW,305,0.0,7.0,46,0.00,CLR,CLR,0.00,WeatherDisplay:10.34,2014-09-23 04:51:00,
2014-09-23 00:56:00,47.5,28.2,30.22,SSW,205,4.0,12.0,47,0.00,CLR,CLR,0.00,WeatherDisplay:10.34,2014-09-23 04:56:00,
2014-09-23 01:01:00,47.3,28.1,30.22,West,261,7.0,9.0,47,0.00,CLR,CLR,0.00,WeatherDisplay:10.34,2014-09-23 05:01:00,
2014-09-23 01:06:00,47.3,28.1,30.25,North,11,3.0,3.0,47,0.00,CLR,CLR,0.00,WeatherDisplay:10.34,2014-09-23 05:06:00,
2014-09-23 01:11:00,47.3,28.1,30.25,North,351,4.0,17.0,47,0.00,CLR,CLR,0.00,WeatherDisplay:10.34,2014-09-23 05:11:00,
2014-09-23 01:16:00,47.3,28.1,30.25,North,351,0.0,3.0,47,0.00,CLR,CLR,0.00,WeatherDisplay:10.34,2014-09-23 05:16:00,
2014-09-23 01:21:00,47.1,27.9,30.25,North,351,0.0,0.0,47,0.00,CLR,CLR,0.00,WeatherDisplay:10.34,2014-09-23 05:21:00,
2014-09-23 01:26:00,47.3,28.6,30.25,North,351,0.0,0.0,48,0.00,CLR,CLR,0.00,WeatherDisplay:10.34,2014-09-23 05:26:00,
2014-09-23 01:31:00,47.3,28.6,30.25,North,351,0.0,0.0,48,0.00,CLR,CLR,0.00,WeatherDisplay:10.34,2014-09-23 05:31:00,
2014-09-23 01:36:00,46.9,28.8,30.25,North,351,0.0,6.0,49,0.00,CLR,CLR,0.00,WeatherDisplay:10.34,2014-09-23 05:36:00,
2014-09-23 01:41:00,46.8,28.6,30.25,North,351,0.0,3.0,49,0.00,CLR,CLR,0.00,WeatherDisplay:10.34,2014-09-23 05:41:00,
2014-09-23 01:46:00,46.4,27.8,30.25,NNE,22,13.0,31.0,48,0.00,CLR,CLR,0.00,WeatherDisplay:10.34,2014-09-23 05:46:00,
2014-09-23 01:51:00,46.2,28.1,30.25,North,7,0.0,12.0,49,0.00,CLR,CLR,0.00,WeatherDisplay:10.34,2014-09-23 05:51:00,
2014-09-23 01:53:00,46.2,27.6,30.25,North,7,5.0,9.0,48,0.00,CLR,CLR,0.00,WeatherDisplay:10.34,2014-09-23 05:53:00,
2014-09-23 01:58:00,46.4,27.2,30.25,NNE,13,0.0,3.0,47,0.00,CLR,CLR,0.00,WeatherDisplay:10.34,2014-09-23 05:58:00,
2014-09-23 02:03:00,46.8,28.1,30.25,NNE,13,0.0,3.0,48,0.00,CLR,CLR,0.00,WeatherDisplay:10.34,2014-09-23 06:03:00,
2014-09-23 02:08:00,46.6,28.4,30.25,NNE,13,0.0,0.0,49,0.00,CLR,CLR,0.00,WeatherDisplay:10.34,2014-09-23 06:08:00,
2014-09-23 02:13:00,46.4,27.2,30.25,North,351,0.0,3.0,47,0.00,CLR,CLR,0.00,WeatherDisplay:10.34,2014-09-23 06:13:00,
2014-09-23 02:18:00,46.4,26.7,30.25,WSW,238,0.0,3.0,46,0.00,CLR,CLR,0.00,WeatherDisplay:10.34,2014-09-23 06:18:00,
2014-09-23 02:23:00,46.6,26.9,30.25,North,4,0.0,3.0,46,0.00,CLR,CLR,0.00,WeatherDisplay:10.34,2014-09-23 06:23:00,
2014-09-23 02:28:00,46.6,26.4,30.25,NNE,23,11.0,21.0,45,0.00,CLR,CLR,0.00,WeatherDisplay:10.34,2014-09-23 06:28:00,
2014-09-23 02:33:00,46.6,26.4,30.25,North,10,3.0,7.0,45,0.00,CLR,CLR,0.00,WeatherDisplay:10.34,2014-09-23 06:33:00,
2014-09-23 02:38:00,46.6,26.4,30.25,North,10,3.0,3.0,45,0.00,CLR,CLR,0.00,WeatherDisplay:10.34,2014-09-23 06:38:00,
2014-09-23 02:43:00,46.6,25.8,30.25,North,351,0.0,7.0,44,0.00,CLR,CLR,0.00,WeatherDisplay:10.34,2014-09-23 06:43:00,
2014-09-23 02:48:00,46.8,26.5,30.25,North,351,0.0,0.0,45,0.00,CLR,CLR,0.00,WeatherDisplay:10.34,2014-09-23 06:48:00,
2014-09-23 02:53:00,46.8,26.5,30.25,West,267,9.0,15.0,45,0.00,CLR,CLR,0.00,WeatherDisplay:10.34,2014-09-23 06:53:00,
2014-09-23 02:58:00,46.6,26.4,30.25,WSW,249,0.0,14.0,45,0.00,CLR,CLR,0.00,WeatherDisplay:10.34,2014-09-23 06:58:00,
2014-09-23 03:03:00,46.6,26.4,30.25,SW,229,5.0,20.0,45,0.00,CLR,CLR,0.00,WeatherDisplay:10.34,2014-09-23 07:03:00,
2014-09-23 03:08:00,46.6,26.4,30.25,North,4,4.0,15.0,45,0.00,CLR,CLR,0.00,WeatherDisplay:10.34,2014-09-23 07:08:00,
2014-09-23 03:13:00,46.6,26.4,30.25,NNW,339,3.0,12.0,45,0.00,CLR,CLR,0.00,WeatherDisplay:10.34,2014-09-23 07:13:00,
2014-09-23 03:18:00,46.4,26.7,30.28,NE,47,5.0,14.0,46,0.00,CLR,CLR,0.00,WeatherDisplay:10.34,2014-09-23 07:18:00,
2014-09-23 03:23:00,46.4,26.7,30.28,SW,225,4.0,17.0,46,0.00,CLR,CLR,0.00,WeatherDisplay:10.34,2014-09-23 07:23:00,
2014-09-23 03:28:00,46.2,26.6,30.28,North,351,12.0,17.0,46,0.00,CLR,CLR,0.00,WeatherDisplay:10.34,2014-09-23 07:28:00,
2014-09-23 03:33:00,46.4,26.7,30.28,WSW,253,8.0,17.0,46,0.00,CLR,CLR,0.00,WeatherDisplay:10.34,2014-09-23 07:33:00,
2014-09-23 03:38:00,46.2,26.6,30.28,SW,227,4.0,10.0,46,0.00,CLR,CLR,0.00,WeatherDisplay:10.34,2014-09-23 07:38:00,
2014-09-23 03:43:00,46.2,27.1,30.28,West,262,0.0,3.0,47,0.00,CLR,CLR,0.00,WeatherDisplay:10.34,2014-09-23 07:43:00,
2014-09-23 03:48:00,46.2,27.1,30.28,NE,51,4.0,10.0,47,0.00,CLR,CLR,0.00,WeatherDisplay:10.34,2014-09-23 07:48:00,
2014-09-23 03:53:00,46.2,27.1,30.28,North,10,3.0,7.0,47,0.00,CLR,CLR,0.00,WeatherDisplay:10.34,2014-09-23 07:53:00,
2014-09-23 03:58:00,46.4,27.2,30.28,WNW,288,3.0,12.0,47,0.00,CLR,CLR,0.00,WeatherDisplay:10.34,2014-09-23 07:58:00,
2014-09-23 04:03:00,46.4,26.7,30.28,NNW,335,7.0,10.0,46,0.00,CLR,CLR,0.00,WeatherDisplay:10.34,2014-09-23 08:03:00,
2014-09-23 04:08:00,46.4,26.7,30.28,West,270,0.0,3.0,46,0.00,CLR,CLR,0.00,WeatherDisplay:10.34,2014-09-23 08:08:00,
2014-09-23 04:13:00,46.2,27.1,30.28,WSW,258,3.0,9.0,47,0.00,CLR,CLR,0.00,WeatherDisplay:10.34,2014-09-23 08:13:00,
2014-09-23 04:18:00,46.2,27.1,30.28,WSW,251,0.0,10.0,47,0.00,CLR,CLR,0.00,WeatherDisplay:10.34,2014-09-23 08:18:00,
2014-09-23 04:23:00,46.2,27.1,30.28,WSW,250,0.0,0.0,47,0.00,CLR,CLR,0.00,WeatherDisplay:10.34,2014-09-23 08:23:00,
2014-09-23 04:28:00,46.0,27.4,30.28,WSW,251,0.0,6.0,48,0.00,CLR,CLR,0.00,WeatherDisplay:10.34,2014-09-23 08:28:00,
2014-09-23 04:33:00,46.0,27.9,30.32,WSW,251,0.0,0.0,49,0.00,CLR,CLR,0.00,WeatherDisplay:10.34,2014-09-23 08:33:00,
2014-09-23 04:38:00,45.9,28.3,30.32,WSW,251,0.0,7.0,50,0.00,CLR,CLR,0.00,WeatherDisplay:10.34,2014-09-23 08:38:00,
2014-09-23 04:43:00,45.7,28.1,30.32,WSW,252,0.0,0.0,50,0.00,CLR,CLR,0.00,WeatherDisplay:10.34,2014-09-23 08:43:00,
2014-09-23 04:48:00,45.3,28.2,30.29,WSW,252,0.0,0.0,51,0.00,CLR,CLR,0.00,WeatherDisplay:10.34,2014-09-23 08:48:00,
2014-09-23 04:53:00,44.8,28.7,30.29,SSW,209,0.0,3.0,53,0.00,CLR,CLR,0.00,WeatherDisplay:10.34,2014-09-23 08:53:00,
2014-09-23 04:58:00,44.4,28.8,30.29,SSW,210,0.0,0.0,54,0.00,CLR,CLR,0.00,WeatherDisplay:10.34,2014-09-23 08:58:00,
2014-09-23 05:10:00,43.5,28.8,30.32,SSW,210,0.0,0.0,56,0.00,CLR,CLR,0.00,WeatherDisplay:10.34,2014-09-23 09:10:00,
2014-09-23 05:15:00,43.5,29.3,30.32,SSW,209,0.0,0.0,57,0.00,CLR,CLR,0.00,WeatherDisplay:10.34,2014-09-23 09:15:00,
2014-09-23 05:20:00,43.5,29.7,30.32,SSW,210,0.0,0.0,58,0.00,CLR,CLR,0.00,WeatherDisplay:10.34,2014-09-23 09:20:00,
2014-09-23 05:25:00,43.3,29.5,30.32,SSW,210,0.0,0.0,58,0.00,CLR,CLR,0.00,WeatherDisplay:10.34,2014-09-23 09:25:00,
2014-09-23 05:27:00,43.3,30.0,30.32,SSW,210,0.0,0.0,59,0.00,CLR,CLR,0.00,WeatherDisplay:10.34,2014-09-23 09:27:00,
2014-09-23 05:32:00,43.0,30.0,30.32,SSW,210,0.0,0.0,60,0.00,CLR,CLR,0.00,WeatherDisplay:10.34,2014-09-23 09:32:00,
2014-09-23 05:37:00,42.8,30.3,30.32,SSW,210,0.0,0.0,61,0.00,CLR,CLR,0.00,WeatherDisplay:10.34,2014-09-23 09:37:00,
2014-09-23 05:42:00,42.6,30.1,30.32,SSW,209,0.0,0.0,61,0.00,CLR,CLR,0.00,WeatherDisplay:10.34,2014-09-23 09:42:00,
2014-09-23 05:47:00,42.8,30.7,30.32,WSW,253,9.0,17.0,62,0.00,CLR,CLR,0.00,WeatherDisplay:10.34,2014-09-23 09:47:00,
2014-09-23 05:52:00,42.8,30.7,30.32,North,351,0.0,6.0,62,0.00,CLR,CLR,0.00,WeatherDisplay:10.34,2014-09-23 09:52:00,
2014-09-23 05:57:00,43.2,31.0,30.32,NE,44,4.0,12.0,62,0.00,CLR,CLR,0.00,WeatherDisplay:10.34,2014-09-23 09:57:00,
2014-09-23 06:02:00,43.7,31.1,30.32,West,281,0.0,6.0,61,0.00,CLR,CLR,0.00,WeatherDisplay:10.34,2014-09-23 10:02:00,
2014-09-23 06:07:00,43.7,30.7,30.32,WSW,245,0.0,3.0,60,0.00,CLR,CLR,0.00,WeatherDisplay:10.34,2014-09-23 10:07:00,
2014-09-23 06:12:00,44.1,31.5,30.32,SSE,156,9.0,20.0,61,0.00,CLR,CLR,0.00,WeatherDisplay:10.34,2014-09-23 10:12:00,
2014-09-23 06:17:00,44.2,30.8,30.32,SW,236,4.0,17.0,59,0.00,CLR,CLR,0.00,WeatherDisplay:10.34,2014-09-23 10:17:00,
2014-09-23 06:22:00,44.4,30.1,30.32,SSW,212,7.0,14.0,57,0.00,CLR,CLR,0.00,WeatherDisplay:10.34,2014-09-23 10:22:00,
2014-09-23 06:27:00,44.6,30.3,30.32,SSE,162,0.0,3.0,57,0.00,CLR,CLR,0.00,WeatherDisplay:10.34,2014-09-23 10:27:00,
2014-09-23 06:32:00,44.4,30.6,30.32,SSW,206,3.0,6.0,58,0.00,CLR,CLR,0.00,WeatherDisplay:10.34,2014-09-23 10:32:00,
2014-09-23 06:37:00,44.1,30.6,30.35,WSW,242,3.0,10.0,59,0.00,CLR,CLR,0.00,WeatherDisplay:10.34,2014-09-23 10:37:00,
2014-09-23 06:42:00,44.1,31.1,30.35,SSW,195,0.0,6.0,60,0.00,CLR,CLR,0.00,WeatherDisplay:10.34,2014-09-23 10:42:00,
2014-09-23 06:47:00,44.2,30.8,30.35,NNW,347,5.0,14.0,59,0.00,CLR,CLR,0.00,WeatherDisplay:10.34,2014-09-23 10:47:00,
2014-09-23 06:48:00,44.2,30.8,30.35,North,351,4.0,9.0,59,0.00,CLR,CLR,0.00,WeatherDisplay:10.34,2014-09-23 10:48:00,
2014-09-23 06:53:00,44.2,31.2,30.35,NW,305,4.0,12.0,60,0.00,CLR,CLR,0.00,WeatherDisplay:10.34,2014-09-23 10:53:00,
2014-09-23 06:58:00,44.4,31.4,30.35,WNW,285,3.0,9.0,60,0.00,CLR,CLR,0.00,WeatherDisplay:10.34,2014-09-23 10:58:00,
2014-09-23 07:03:00,44.6,32.0,30.35,WNW,285,0.0,0.0,61,0.00,CLR,CLR,0.00,WeatherDisplay:10.34,2014-09-23 11:03:00,
2014-09-23 07:08:00,44.6,32.0,30.35,SW,236,5.0,15.0,61,0.00,CLR,CLR,0.00,WeatherDisplay:10.34,2014-09-23 11:08:00,
2014-09-23 07:13:00,44.8,31.3,30.35,WSW,241,4.0,15.0,59,0.00,CLR,CLR,0.00,WeatherDisplay:10.34,2014-09-23 11:13:00,
2014-09-23 07:18:00,45.1,30.4,30.35,West,270,4.0,12.0,56,0.00,CLR,CLR,0.00,WeatherDisplay:10.34,2014-09-23 11:18:00,
2014-09-23 07:23:00,45.5,30.3,30.35,West,259,4.0,7.0,55,0.00,CLR,CLR,0.00,WeatherDisplay:10.34,2014-09-23 11:23:00,
2014-09-23 07:28:00,45.7,30.0,30.35,West,268,15.0,22.0,54,0.00,CLR,CLR,0.00,WeatherDisplay:10.34,2014-09-23 11:28:00,
2014-09-23 07:33:00,45.9,30.1,30.35,West,267,5.0,10.0,54,0.00,CLR,CLR,0.00,WeatherDisplay:10.34,2014-09-23 11:33:00,
2014-09-23 07:38:00,46.0,30.3,30.35,SW,234,14.0,24.0,54,0.00,CLR,CLR,0.00,WeatherDisplay:10.34,2014-09-23 11:38:00,
2014-09-23 07:43:00,46.2,30.5,30.35,NW,308,3.0,7.0,54,0.00,CLR,CLR,0.00,WeatherDisplay:10.34,2014-09-23 11:43:00,
2014-09-23 07:48:00,46.4,30.2,30.35,NW,318,7.0,20.0,53,0.00,CLR,CLR,0.00,WeatherDisplay:10.34,2014-09-23 11:48:00,
2014-09-23 07:53:00,46.6,29.9,30.35,NE,34,7.0,17.0,52,0.00,CLR,CLR,0.00,WeatherDisplay:10.34,2014-09-23 11:53:00,
2014-09-23 07:58:00,46.9,30.2,30.35,SSW,195,6.0,12.0,52,0.00,CLR,CLR,0.00,WeatherDisplay:10.34,2014-09-23 11:58:00,
2014-09-23 08:03:00,47.1,29.9,30.38,SW,227,6.0,20.0,51,0.00,CLR,CLR,0.00,WeatherDisplay:10.34,2014-09-23 12:03:00,
2014-09-23 08:08:00,47.3,30.1,30.38,SW,235,3.0,14.0,51,0.00,CLR,CLR,0.00,WeatherDisplay:10.34,2014-09-23 12:08:00,
2014-09-23 08:13:00,47.5,29.7,30.38,SSW,194,5.0,9.0,50,0.00,CLR,CLR,0.00,WeatherDisplay:10.34,2014-09-23 12:13:00,
2014-09-23 08:18:00,47.5,29.7,30.38,SW,214,9.0,25.0,50,0.00,CLR,CLR,0.00,WeatherDisplay:10.34,2014-09-23 12:18:00,
2014-09-23 08:23:00,47.7,29.9,30.38,North,351,4.0,20.0,50,0.00,CLR,CLR,0.00,WeatherDisplay:10.34,2014-09-23 12:23:00,
2014-09-23 08:28:00,47.8,30.1,30.38,West,262,10.0,17.0,50,0.00,CLR,CLR,0.00,WeatherDisplay:10.34,2014-09-23 12:28:00,
2014-09-23 08:33:00,48.0,30.2,30.38,East,98,13.0,26.0,50,0.00,CLR,CLR,0.00,WeatherDisplay:10.34,2014-09-23 12:33:00,
2014-09-23 08:38:00,48.2,29.9,30.38,West,265,9.0,29.0,49,0.00,CLR,CLR,0.00,WeatherDisplay:10.34,2014-09-23 12:38:00,
2014-09-23 08:43:00,48.4,30.1,30.38,SW,226,5.0,17.0,49,0.00,CLR,CLR,0.00,WeatherDisplay:10.34,2014-09-23 12:43:00,
2014-09-23 08:48:00,48.7,30.4,30.38,SW,217,8.0,20.0,49,0.00,CLR,CLR,0.00,WeatherDisplay:10.34,2014-09-23 12:48:00,
2014-09-23 08:53:00,48.9,30.6,30.39,ESE,102,7.0,12.0,49,0.00,CLR,CLR,0.00,WeatherDisplay:10.34,2014-09-23 12:53:00,
2014-09-23 08:58:00,48.9,30.6,30.39,NNE,12,10.0,22.0,49,0.00,CLR,CLR,0.00,WeatherDisplay:10.34,2014-09-23 12:58:00,
2014-09-23 09:03:00,49.1,31.2,30.39,NNE,14,3.0,23.0,50,0.00,CLR,CLR,0.00,WeatherDisplay:10.34,2014-09-23 13:03:00,
2014-09-23 09:08:00,49.3,30.9,30.39,ENE,70,9.0,26.0,49,0.00,CLR,CLR,0.00,WeatherDisplay:10.34,2014-09-23 13:08:00,
2014-09-23 09:13:00,49.5,31.1,30.39,NW,313,0.0,3.0,49,0.00,CLR,CLR,0.00,WeatherDisplay:10.34,2014-09-23 13:13:00,
2014-09-23 09:18:00,49.6,30.7,30.42,North,1,4.0,9.0,48,0.00,CLR,CLR,0.00,WeatherDisplay:10.34,2014-09-23 13:18:00,
2014-09-23 09:23:00,49.8,30.9,30.42,West,266,0.0,3.0,48,0.00,CLR,CLR,0.00,WeatherDisplay:10.34,2014-09-23 13:23:00,
2014-09-23 09:28:00,50.0,31.6,30.42,South,179,7.0,14.0,49,0.00,CLR,CLR,0.00,WeatherDisplay:10.34,2014-09-23 13:28:00,
2014-09-23 09:33:00,50.2,30.7,30.42,SW,220,3.0,21.0,47,0.00,CLR,CLR,0.00,WeatherDisplay:10.34,2014-09-23 13:33:00,
2014-09-23 09:38:00,50.4,30.9,30.42,ENE,77,8.0,17.0,47,0.00,CLR,CLR,0.00,WeatherDisplay:10.34,2014-09-23 13:38:00,
2014-09-23 09:43:00,50.5,31.6,30.42,SW,235,5.0,15.0,48,0.00,CLR,CLR,0.00,WeatherDisplay:10.34,2014-09-23 13:43:00,
2014-09-23 09:48:00,50.9,31.4,30.42,NW,322,9.0,21.0,47,0.00,CLR,CLR,0.00,WeatherDisplay:10.34,2014-09-23 13:48:00,
2014-09-23 09:53:00,51.1,31.5,30.42,North,0,13.0,21.0,47,0.00,CLR,CLR,0.00,WeatherDisplay:10.34,2014-09-23 13:53:00,
2014-09-23 09:58:00,51.3,31.2,30.41,NNW,347,4.0,26.0,46,0.00,CLR,CLR,0.00,WeatherDisplay:10.34,2014-09-23 13:58:00,
2014-09-23 10:03:00,51.6,30.9,30.41,SW,224,6.0,12.0,45,0.00,CLR,CLR,0.00,WeatherDisplay:10.34,2014-09-23 14:03:00,
2014-09-23 10:08:00,51.6,30.9,30.41,South,170,11.0,21.0,45,0.00,CLR,CLR,0.00,WeatherDisplay:10.34,2014-09-23 14:08:00,
2014-09-23 10:13:00,52.0,31.3,30.41,North,351,0.0,6.0,45,0.00,CLR,CLR,0.00,WeatherDisplay:10.34,2014-09-23 14:13:00,
2014-09-23 10:18:00,52.2,31.4,30.41,NE,47,5.0,16.0,45,0.00,CLR,CLR,0.00,WeatherDisplay:10.34,2014-09-23 14:18:00,
2014-09-23 10:23:00,52.5,31.8,30.41,WSW,243,6.0,17.0,45,0.00,CLR,CLR,0.00,WeatherDisplay:10.34,2014-09-23 14:23:00,
2014-09-23 10:28:00,52.9,31.5,30.41,North,8,10.0,14.0,44,0.00,CLR,CLR,0.00,WeatherDisplay:10.34,2014-09-23 14:28:00,
2014-09-23 10:33:00,53.2,32.4,30.41,NNE,21,7.0,17.0,45,0.00,CLR,CLR,0.00,WeatherDisplay:10.34,2014-09-23 14:33:00,
2014-09-23 10:34:00,53.4,32.0,30.41,North,3,10.0,20.0,44,0.00,CLR,CLR,0.00,WeatherDisplay:10.34,2014-09-23 14:34:00,
2014-09-23 10:39:00,53.4,30.9,30.41,North,0,5.0,14.0,42,0.00,CLR,CLR,0.00,WeatherDisplay:10.34,2014-09-23 14:39:00,
2014-09-23 10:44:00,53.8,31.8,30.41,North,1,7.0,23.0,43,0.00,CLR,CLR,0.00,WeatherDisplay:10.34,2014-09-23 14:44:00,
2014-09-23 10:49:00,54.1,32.1,30.41,SW,227,3.0,6.0,43,0.00,CLR,CLR,0.00,WeatherDisplay:10.34,2014-09-23 14:49:00,
2014-09-23 10:54:00,54.5,32.4,30.41,ENE,64,6.0,12.0,43,0.00,CLR,CLR,0.00,WeatherDisplay:10.34,2014-09-23 14:54:00,
2014-09-23 10:59:00,54.9,32.2,30.41,SW,233,8.0,18.0,42,0.00,CLR,CLR,0.00,WeatherDisplay:10.34,2014-09-23 14:59:00,
2014-09-23 11:04:00,55.0,31.7,30.41,North,351,11.0,20.0,41,0.00,CLR,CLR,0.00,WeatherDisplay:10.34,2014-09-23 15:04:00,
2014-09-23 11:09:00,55.6,32.2,30.41,WSW,252,12.0,20.0,41,0.00,CLR,CLR,0.00,WeatherDisplay:10.34,2014-09-23 15:09:00,
2014-09-23 11:14:00,56.1,32.1,30.41,ENE,64,5.0,20.0,40,0.00,CLR,CLR,0.00,WeatherDisplay:10.34,2014-09-23 15:14:00,
2014-09-23 11:19:00,56.3,32.3,30.38,SW,230,7.0,21.0,40,0.00,CLR,CLR,0.00,WeatherDisplay:10.34,2014-09-23 15:19:00,
2014-09-23 11:24:00,56.7,32.0,30.38,North,0,7.0,16.0,39,0.00,CLR,CLR,0.00,WeatherDisplay:10.34,2014-09-23 15:24:00,
2014-09-23 11:29:00,56.8,33.4,30.38,SE,132,8.0,23.0,41,0.00,CLR,CLR,0.00,WeatherDisplay:10.34,2014-09-23 15:29:00,
2014-09-23 11:34:00,57.2,32.4,30.38,NW,315,5.0,13.0,39,0.00,CLR,CLR,0.00,WeatherDisplay:10.34,2014-09-23 15:34:00,
2014-09-23 11:39:00,57.0,32.3,30.38,NNE,19,7.0,18.0,39,0.00,CLR,CLR,0.00,WeatherDisplay:10.34,2014-09-23 15:39:00,
2014-09-23 11:44:00,57.0,32.3,30.38,NE,47,9.0,14.0,39,0.00,CLR,CLR,0.00,WeatherDisplay:10.34,2014-09-23 15:44:00,
2014-09-23 11:49:00,57.2,31.8,30.41,North,3,11.0,17.0,38,0.00,CLR,CLR,0.00,WeatherDisplay:10.34,2014-09-23 15:49:00,
2014-09-23 11:54:00,57.2,33.1,30.41,North,5,4.0,13.0,40,0.00,CLR,CLR,0.00,WeatherDisplay:10.34,2014-09-23 15:54:00,
2014-09-23 11:59:00,57.6,32.8,30.41,NNE,13,7.0,17.0,39,0.00,CLR,CLR,0.00,WeatherDisplay:10.34,2014-09-23 15:59:00,
2014-09-23 12:04:00,57.6,32.1,30.41,WSW,240,8.0,12.0,38,0.00,CLR,CLR,0.00,WeatherDisplay:10.34,2014-09-23 16:04:00,
2014-09-23 12:09:00,57.9,32.4,30.41,South,182,7.0,20.0,38,0.00,CLR,CLR,0.00,WeatherDisplay:10.34,2014-09-23 16:09:00,
2014-09-23 12:14:00,58.1,32.6,30.41,SW,219,14.0,23.0,38,0.00,CLR,CLR,0.00,WeatherDisplay:10.34,2014-09-23 16:14:00,
2014-09-23 12:19:00,58.5,32.9,30.41,NNE,28,7.0,12.0,38,0.00,CLR,CLR,0.00,WeatherDisplay:10.34,2014-09-23 16:19:00,
2014-09-23 12:24:00,58.8,33.2,30.41,NNE,26,7.0,15.0,38,0.00,CLR,CLR,0.00,WeatherDisplay:10.34,2014-09-23 16:24:00,
2014-09-23 12:29:00,59.0,33.4,30.41,NNE,12,6.0,15.0,38,0.00,CLR,CLR,0.00,WeatherDisplay:10.34,2014-09-23 16:29:00,
2014-09-23 12:34:00,59.2,33.6,30.41,SSW,209,6.0,10.0,38,0.00,CLR,CLR,0.00,WeatherDisplay:10.34,2014-09-23 16:34:00,
2014-09-23 12:39:00,59.4,33.1,30.41,South,185,5.0,10.0,37,0.00,CLR,CLR,0.00,WeatherDisplay:10.34,2014-09-23 16:39:00,
2014-09-23 12:44:00,59.7,34.0,30.41,NNW,327,4.0,12.0,38,0.00,CLR,CLR,0.00,WeatherDisplay:10.34,2014-09-23 16:44:00,
2014-09-23 12:49:00,59.7,33.4,30.41,NNE,22,6.0,8.0,37,0.00,CLR,CLR,0.00,WeatherDisplay:10.34,2014-09-23 16:49:00,
2014-09-23 12:54:00,59.7,33.4,30.41,NNE,19,9.0,13.0,37,0.00,CLR,CLR,0.00,WeatherDisplay:10.34,2014-09-23 16:54:00,
2014-09-23 12:59:00,59.7,33.4,30.41,SW,231,7.0,12.0,37,0.00,CLR,CLR,0.00,WeatherDisplay:10.34,2014-09-23 16:59:00,
2014-09-23 13:04:00,59.7,33.4,30.41,SW,217,3.0,6.0,37,0.00,CLR,CLR,0.00,WeatherDisplay:10.34,2014-09-23 17:04:00,
2014-09-23 13:09:00,60.3,33.9,30.41,SSE,155,4.0,6.0,37,0.00,CLR,CLR,0.00,WeatherDisplay:10.34,2014-09-23 17:09:00,
2014-09-23 13:14:00,60.4,34.0,30.41,SW,217,13.0,20.0,37,0.00,CLR,CLR,0.00,WeatherDisplay:10.34,2014-09-23 17:14:00,
2014-09-23 13:19:00,60.8,33.7,30.40,SSE,153,6.0,10.0,36,0.00,CLR,CLR,0.00,WeatherDisplay:10.34,2014-09-23 17:19:00,
2014-09-23 13:24:00,60.6,33.5,30.41,North,10,3.0,15.0,36,0.00,CLR,CLR,0.00,WeatherDisplay:10.34,2014-09-23 17:24:00,
2014-09-23 13:29:00,60.6,33.5,30.40,SSW,197,5.0,8.0,36,0.00,CLR,CLR,0.00,WeatherDisplay:10.34,2014-09-23 17:29:00,
2014-09-23 13:34:00,60.6,34.2,30.41,WNW,293,5.0,12.0,37,0.00,CLR,CLR,0.00,WeatherDisplay:10.34,2014-09-23 17:34:00,
2014-09-23 13:39:00,60.8,33.7,30.41,WSW,258,5.0,22.0,36,0.00,CLR,CLR,0.00,WeatherDisplay:10.34,2014-09-23 17:39:00,
2014-09-23 13:45:00,61.0,33.8,30.41,North,2,6.0,16.0,36,0.00,CLR,CLR,0.00,WeatherDisplay:10.34,2014-09-23 17:45:00,
2014-09-23 13:50:00,61.2,34.0,30.37,WSW,248,7.0,13.0,36,0.00,CLR,CLR,0.00,WeatherDisplay:10.34,2014-09-23 17:50:00,
2014-09-23 13:55:00,61.0,33.8,30.37,NW,320,4.0,7.0,36,0.00,CLR,CLR,0.00,WeatherDisplay:10.34,2014-09-23 17:55:00,
2014-09-23 14:00:00,61.0,33.8,30.37,WSW,238,6.0,12.0,36,0.00,CLR,CLR,0.00,WeatherDisplay:10.34,2014-09-23 18:00:00,
2014-09-23 14:05:00,60.8,33.7,30.41,SSW,196,12.0,17.0,36,0.00,CLR,CLR,0.00,WeatherDisplay:10.34,2014-09-23 18:05:00,
2014-09-23 14:10:00,60.6,33.5,30.41,North,351,3.0,7.0,36,0.00,CLR,CLR,0.00,WeatherDisplay:10.34,2014-09-23 18:10:00,
2014-09-23 14:15:00,60.4,34.0,30.41,NNW,337,11.0,18.0,37,0.00,CLR,CLR,0.00,WeatherDisplay:10.34,2014-09-23 18:15:00,
2014-09-23 14:20:00,60.4,34.0,30.41,WSW,248,4.0,6.0,37,0.00,CLR,CLR,0.00,WeatherDisplay:10.34,2014-09-23 18:20:00,
2014-09-23 14:25:00,60.6,34.9,30.41,NNW,333,5.0,10.0,38,0.00,CLR,CLR,0.00,WeatherDisplay:10.34,2014-09-23 18:25:00,
2014-09-23 14:30:00,60.6,34.9,30.41,South,177,0.0,3.0,38,0.00,CLR,CLR,0.00,WeatherDisplay:10.34,2014-09-23 18:30:00,
2014-09-23 14:35:00,60.6,34.9,30.41,ENE,61,3.0,6.0,38,0.00,CLR,CLR,0.00,WeatherDisplay:10.34,2014-09-23 18:35:00,
2014-09-23 14:40:00,60.6,34.2,30.41,West,279,12.0,18.0,37,0.00,CLR,CLR,0.00,WeatherDisplay:10.34,2014-09-23 18:40:00,
2014-09-23 14:45:00,60.6,34.9,30.41,SSE,163,5.0,12.0,38,0.00,CLR,CLR,0.00,WeatherDisplay:10.34,2014-09-23 18:45:00,
2014-09-23 14:50:00,60.4,34.7,30.41,NNW,337,3.0,15.0,38,0.00,CLR,CLR,0.00,WeatherDisplay:10.34,2014-09-23 18:50:00,
2014-09-23 14:55:00,60.3,34.5,30.41,NNW,339,8.0,14.0,38,0.00,CLR,CLR,0.00,WeatherDisplay:10.34,2014-09-23 18:55:00,
2014-09-23 15:00:00,60.3,34.5,30.41,NE,38,5.0,12.0,38,0.00,CLR,CLR,0.00,WeatherDisplay:10.34,2014-09-23 19:00:00,
2014-09-23 15:05:00,60.4,35.3,30.41,NNE,29,11.0,22.0,39,0.00,CLR,CLR,0.00,WeatherDisplay:10.34,2014-09-23 19:05:00,
2014-09-23 15:10:00,60.6,34.2,30.41,NNW,334,3.0,20.0,37,0.00,CLR,CLR,0.00,WeatherDisplay:10.34,2014-09-23 19:10:00,
2014-09-23 15:15:00,61.0,35.2,30.41,North,6,7.0,12.0,38,0.00,CLR,CLR,0.00,WeatherDisplay:10.34,2014-09-23 19:15:00,
2014-09-23 15:20:00,61.0,35.2,30.41,NNW,345,6.0,9.0,38,0.00,CLR,CLR,0.00,WeatherDisplay:10.34,2014-09-23 19:20:00,
2014-09-23 15:25:00,61.0,34.5,30.41,North,0,7.0,8.0,37,0.00,CLR,CLR,0.00,WeatherDisplay:10.34,2014-09-23 19:25:00,
2014-09-23 15:30:00,61.0,34.5,30.41,NW,322,6.0,13.0,37,0.00,CLR,CLR,0.00,WeatherDisplay:10.34,2014-09-23 19:30:00,
2014-09-23 15:35:00,61.0,34.5,30.41,NNE,13,7.0,14.0,37,0.00,CLR,CLR,0.00,WeatherDisplay:10.34,2014-09-23 19:35:00,
2014-09-23 15:40:00,61.0,35.2,30.41,SSW,212,4.0,9.0,38,0.00,CLR,CLR,0.00,WeatherDisplay:10.34,2014-09-23 19:40:00,
2014-09-23 15:45:00,60.8,35.0,30.41,NNW,341,5.0,17.0,38,0.00,CLR,CLR,0.00,WeatherDisplay:10.34,2014-09-23 19:45:00,
2014-09-23 15:50:00,60.8,35.0,30.41,North,0,3.0,7.0,38,0.00,CLR,CLR,0.00,WeatherDisplay:10.34,2014-09-23 19:50:00,
2014-09-23 15:55:00,60.8,35.7,30.41,West,262,3.0,3.0,39,0.00,CLR,CLR,0.00,WeatherDisplay:10.34,2014-09-23 19:55:00,
2014-09-23 16:00:00,60.8,36.3,30.41,West,264,0.0,15.0,40,0.00,CLR,CLR,0.00,WeatherDisplay:10.34,2014-09-23 20:00:00,
2014-09-23 16:05:00,61.0,36.5,30.41,North,8,0.0,2.0,40,0.00,CLR,CLR,0.00,WeatherDisplay:10.34,2014-09-23 20:05:00,
2014-09-23 16:10:00,61.3,36.8,30.41,SW,226,4.0,15.0,40,0.00,CLR,CLR,0.00,WeatherDisplay:10.34,2014-09-23 20:10:00,
2014-09-23 16:15:00,61.5,36.3,30.41,WSW,249,4.0,7.0,39,0.00,CLR,CLR,0.00,WeatherDisplay:10.34,2014-09-23 20:15:00,
2014-09-23 16:20:00,61.7,36.5,30.40,WSW,237,4.0,6.0,39,0.00,CLR,CLR,0.00,WeatherDisplay:10.34,2014-09-23 20:20:00,
2014-09-23 16:25:00,61.7,36.5,30.40,NNE,25,3.0,6.0,39,0.00,CLR,CLR,0.00,WeatherDisplay:10.34,2014-09-23 20:25:00,
2014-09-23 16:30:00,61.7,37.1,30.41,NNE,23,3.0,5.0,40,0.00,CLR,CLR,0.00,WeatherDisplay:10.34,2014-09-23 20:30:00,
2014-09-23 16:35:00,61.5,36.3,30.44,West,261,3.0,6.0,39,0.00,CLR,CLR,0.00,WeatherDisplay:10.34,2014-09-23 20:35:00,
2014-09-23 16:40:00,61.5,37.6,30.44,WSW,239,3.0,7.0,41,0.00,CLR,CLR,0.00,WeatherDisplay:10.34,2014-09-23 20:40:00,
2014-09-23 16:45:00,61.3,36.2,30.44,West,264,7.0,18.0,39,0.00,CLR,CLR,0.00,WeatherDisplay:10.34,2014-09-23 20:45:00,
2014-09-23 16:50:00,61.3,36.8,30.44,NNW,343,5.0,9.0,40,0.00,CLR,CLR,0.00,WeatherDisplay:10.34,2014-09-23 20:50:00,
2014-09-23 16:55:00,61.3,36.8,30.44,North,8,9.0,16.0,40,0.00,CLR,CLR,0.00,WeatherDisplay:10.34,2014-09-23 20:55:00,
2014-09-23 17:00:00,61.2,36.6,30.44,SW,229,5.0,14.0,40,0.00,CLR,CLR,0.00,WeatherDisplay:10.34,2014-09-23 21:00:00,
2014-09-23 17:05:00,61.0,36.5,30.44,NE,41,7.0,15.0,40,0.00,CLR,CLR,0.00,WeatherDisplay:10.34,2014-09-23 21:05:00,
2014-09-23 17:10:00,60.8,36.9,30.44,WSW,244,3.0,13.0,41,0.00,CLR,CLR,0.00,WeatherDisplay:10.34,2014-09-23 21:10:00,
2014-09-23 17:15:00,60.4,37.2,30.44,West,262,0.0,3.0,42,0.00,CLR,CLR,0.00,WeatherDisplay:10.34,2014-09-23 21:15:00,
2014-09-23 17:20:00,60.3,37.7,30.44,WSW,237,0.0,12.0,43,0.00,CLR,CLR,0.00,WeatherDisplay:10.34,2014-09-23 21:20:00,
2014-09-23 17:25:00,60.1,38.7,30.44,SSW,198,0.0,0.0,45,0.00,CLR,CLR,0.00,WeatherDisplay:10.34,2014-09-23 21:25:00,
2014-09-23 17:30:00,59.7,38.9,30.44,ESE,122,3.0,6.0,46,0.00,CLR,CLR,0.00,WeatherDisplay:10.34,2014-09-23 21:30:00,
2014-09-23 17:35:00,59.7,38.9,30.44,West,279,4.0,10.0,46,0.00,CLR,CLR,0.00,WeatherDisplay:10.34,2014-09-23 21:35:00,
2014-09-23 17:40:00,59.7,38.9,30.44,West,279,0.0,3.0,46,0.00,CLR,CLR,0.00,WeatherDisplay:10.34,2014-09-23 21:40:00,
2014-09-23 17:45:00,59.4,40.2,30.44,NW,308,0.0,0.0,49,0.00,CLR,CLR,0.00,WeatherDisplay:10.34,2014-09-23 21:45:00,
2014-09-23 17:50:00,59.2,40.0,30.44,NW,326,0.0,3.0,49,0.00,CLR,CLR,0.00,WeatherDisplay:10.34,2014-09-23 21:50:00,
2014-09-23 17:55:00,59.0,39.3,30.44,NNW,344,5.0,21.0,48,0.00,CLR,CLR,0.00,WeatherDisplay:10.34,2014-09-23 21:55:00,
2014-09-23 18:00:00,59.2,39.5,30.44,WSW,247,3.0,6.0,48,0.00,CLR,CLR,0.00,WeatherDisplay:10.34,2014-09-23 22:00:00,
2014-09-23 18:05:00,59.2,38.9,30.47,WSW,238,0.0,3.0,47,0.00,CLR,CLR,0.00,WeatherDisplay:10.34,2014-09-23 22:05:00,
2014-09-23 18:10:00,59.0,38.8,30.47,WSW,249,0.0,3.0,47,0.00,CLR,CLR,0.00,WeatherDisplay:10.34,2014-09-23 22:10:00,
2014-09-23 18:15:00,59.0,38.8,30.47,West,265,4.0,12.0,47,0.00,CLR,CLR,0.00,WeatherDisplay:10.34,2014-09-23 22:15:00,
2014-09-23 18:20:00,58.8,38.6,30.47,NW,311,0.0,18.0,47,0.00,CLR,CLR,0.00,WeatherDisplay:10.34,2014-09-23 22:20:00,
2014-09-23 18:25:00,58.6,39.0,30.47,WSW,248,5.0,9.0,48,0.00,CLR,CLR,0.00,WeatherDisplay:10.34,2014-09-23 22:25:00,
2014-09-23 18:30:00,58.5,38.8,30.47,WSW,248,0.0,0.0,48,0.00,CLR,CLR,0.00,WeatherDisplay:10.34,2014-09-23 22:30:00,
2014-09-23 18:35:00,58.3,39.2,30.47,WSW,247,0.0,0.0,49,0.00,CLR,CLR,0.00,WeatherDisplay:10.34,2014-09-23 22:35:00,
2014-09-23 18:40:00,57.9,38.9,30.47,WSW,247,0.0,0.0,49,0.00,CLR,CLR,0.00,WeatherDisplay:10.34,2014-09-23 22:40:00,
2014-09-23 18:45:00,57.6,39.6,30.47,WSW,247,4.0,10.0,51,0.00,CLR,CLR,0.00,WeatherDisplay:10.34,2014-09-23 22:45:00,
2014-09-23 18:50:00,57.4,39.9,30.47,WSW,248,0.0,0.0,52,0.00,CLR,CLR,0.00,WeatherDisplay:10.34,2014-09-23 22:50:00,
2014-09-23 18:55:00,57.2,40.2,30.47,WSW,248,0.0,0.0,53,0.00,CLR,CLR,0.00,WeatherDisplay:10.34,2014-09-23 22:55:00,
2014-09-23 19:00:00,56.8,40.8,30.47,WSW,248,0.0,0.0,55,0.00,CLR,CLR,0.00,WeatherDisplay:10.34,2014-09-23 23:00:00,
2014-09-23 19:05:00,56.5,41.0,30.50,WSW,248,0.0,0.0,56,0.00,CLR,CLR,0.00,WeatherDisplay:10.34,2014-09-23 23:05:00,
2014-09-23 19:10:00,56.3,41.7,30.51,WSW,248,0.0,0.0,58,0.00,CLR,CLR,0.00,WeatherDisplay:10.34,2014-09-23 23:10:00,
2014-09-23 19:15:00,56.1,42.8,30.51,WSW,248,0.0,0.0,61,0.00,CLR,CLR,0.00,WeatherDisplay:10.34,2014-09-23 23:15:00,
2014-09-23 19:20:00,55.9,42.7,30.50,WSW,248,0.0,0.0,61,0.00,CLR,CLR,0.00,WeatherDisplay:10.34,2014-09-23 23:20:00,
2014-09-23 19:26:00,55.9,43.1,30.50,WSW,248,0.0,0.0,62,0.00,CLR,CLR,0.00,WeatherDisplay:10.34,2014-09-23 23:26:00,
2014-09-23 19:31:00,55.9,43.1,30.50,WSW,248,0.0,0.0,62,0.00,CLR,CLR,0.00,WeatherDisplay:10.34,2014-09-23 23:31:00,
2014-09-23 19:36:00,55.9,43.1,30.50,WSW,248,0.0,3.0,62,0.00,CLR,CLR,0.00,WeatherDisplay:10.34,2014-09-23 23:36:00,
2014-09-23 19:41:00,55.9,43.9,30.50,WSW,248,0.0,0.0,64,0.00,CLR,CLR,0.00,WeatherDisplay:10.34,2014-09-23 23:41:00,
2014-09-23 19:46:00,55.9,44.3,30.50,WSW,247,4.0,4.0,65,0.00,CLR,CLR,0.00,WeatherDisplay:10.34,2014-09-23 23:46:00,
2014-09-23 19:51:00,55.9,44.3,30.53,WSW,247,0.0,0.0,65,0.00,CLR,CLR,0.00,WeatherDisplay:10.34,2014-09-23 23:51:00,
2014-09-23 19:56:00,55.9,44.3,30.53,WSW,246,0.0,3.0,65,0.00,CLR,CLR,0.00,WeatherDisplay:10.34,2014-09-23 23:56:00,
2014-09-23 20:01:00,55.9,43.9,30.53,WSW,246,0.0,0.0,64,0.00,CLR,CLR,0.00,WeatherDisplay:10.34,2014-09-24 00:01:00,
2014-09-23 20:06:00,55.9,43.9,30.53,WSW,246,0.0,0.0,64,0.00,CLR,CLR,0.00,WeatherDisplay:10.34,2014-09-24 00:06:00,
2014-09-23 20:11:00,55.9,44.3,30.53,WSW,246,0.0,0.0,65,0.00,CLR,CLR,0.00,WeatherDisplay:10.34,2014-09-24 00:11:00,
2014-09-23 20:16:00,55.8,44.6,30.53,WSW,246,0.0,0.0,66,0.00,CLR,CLR,0.00,WeatherDisplay:10.34,2014-09-24 00:16:00,
2014-09-23 20:21:00,55.8,44.2,30.53,WSW,246,0.0,0.0,65,0.00,CLR,CLR,0.00,WeatherDisplay:10.34,2014-09-24 00:21:00,
2014-09-23 20:26:00,55.8,44.2,30.53,SW,233,0.0,3.0,65,0.04,RA,RA,0.04,WeatherDisplay:10.34,2014-09-24 00:26:00,
2014-09-23 20:31:00,55.9,43.9,30.53,SW,232,0.0,3.0,64,0.04,RA,RA,0.04,WeatherDisplay:10.34,2014-09-24 00:31:00,
2014-09-23 20:36:00,55.9,43.5,30.53,SW,232,0.0,3.0,63,0.04,RA,RA,0.04,WeatherDisplay:10.34,2014-09-24 00:36:00,
2014-09-23 20:41:00,55.8,42.9,30.53,SW,233,0.0,3.0,62,0.04,CLR,CLR,0.04,WeatherDisplay:10.34,2014-09-24 00:41:00,
2014-09-23 20:46:00,55.8,42.9,30.53,SW,233,0.0,0.0,62,0.04,CLR,CLR,0.04,WeatherDisplay:10.34,2014-09-24 00:46:00,
2014-09-23 20:51:00,55.6,42.8,30.53,SW,233,0.0,0.0,62,0.04,CLR,CLR,0.04,WeatherDisplay:10.34,2014-09-24 00:51:00,
2014-09-23 20:56:00,55.2,43.2,30.53,SW,233,0.0,0.0,64,0.04,CLR,CLR,0.04,WeatherDisplay:10.34,2014-09-24 00:56:00,
2014-09-23 21:01:00,54.9,43.3,30.53,SW,233,0.0,0.0,65,0.04,CLR,CLR,0.04,WeatherDisplay:10.34,2014-09-24 01:01:00,
2014-09-23 21:06:00,54.7,43.1,30.56,SW,233,0.0,0.0,65,0.04,CLR,CLR,0.04,WeatherDisplay:10.34,2014-09-24 01:06:00,
2014-09-23 21:11:00,54.3,43.2,30.56,SW,233,0.0,7.0,66,0.04,CLR,CLR,0.04,WeatherDisplay:10.34,2014-09-24 01:11:00,
2014-09-23 21:16:00,54.0,43.2,30.56,SW,233,0.0,0.0,67,0.04,CLR,CLR,0.04,WeatherDisplay:10.34,2014-09-24 01:16:00,
2014-09-23 21:21:00,53.4,43.1,30.56,SW,233,0.0,0.0,68,0.04,CLR,CLR,0.04,WeatherDisplay:10.34,2014-09-24 01:21:00,